sat.trackr.live / text

‹ back to catalog

ONEWEB-0198

NORAD 48216 · 2021-031G

PAYLOAD ACTIVE UNKNOWN

§ Identity

Operator
Country
UK
Launch date
2021-04-25
Launch site
VOSTO
Launch vehicle
Mass (kg)
RCS (m²)

Purposes: comms

External: N2YO · Heavens-Above · Gunter

§ Orbital elements

Epoch: 2026-05-25T03:54:43.617312Z

Period
109.55 min
Inclination
87.8932°
Eccentricity
0.0001485
Mean motion
13.14502170 rev/d
Perigee alt
1,204.7 km
Apogee alt
1,206.9 km
Semi-major
7,583.9 km
B*
1.0599e-4
RAAN
294.3053°
Arg perigee
109.2035°
Mean anomaly
250.9255°
Rev number
24,546

§ Raw data

ONEWEB-01981 48216U 21031G   26145.16300483  .00000052  00000+0  10599-3 0  99942 48216  87.8932 294.3053 0001485 109.2035 250.9255 13.14502170245467

JSON: /api/v1/satellites/48216 · /tle

For live sub-satellite position, see the globe view (requires WebGL).

§ Visibility from observer

Set your observer location to see the next 7 days of passes ≥ 10°. The values pass through the URL so the page stays shareable.

No JS? Fill the form by hand. The geolocation button needs JavaScript.